Abilene, TX

5:59 AM CDT on June 23, 2017 (GMT -0500)
Abilene Regional

Weather History for KABI - January, 2011

Change the Weather History Date:

Friday, January 21, 2011

  Actual Average Record
Temperature  
Mean Temperature 37 °F 45 °F  
Max Temperature 56 °F 57 °F 83 °F (1974)
Min Temperature 18 °F 33 °F 4 °F (1888)
Degree Days  
Heating Degree Days 28 20  
Month to date heating degree days 492 430  
Since 1 July heating degree days 1312 1475  
Cooling Degree Days 0 0  
Month to date cooling degree days 0 0  
Year to date cooling degree days 0 0  
Moisture  
Dew Point 17 °F    
Average Humidity 54    
Maximum Humidity 84    
Minimum Humidity 24    
Precipitation  
Precipitation 0.00 in 0.04 in 1.02 in (1904)
Month to date precipitation 0.11 0.64  
Year to date precipitation 0.11 0.64  
Sea Level Pressure  
Sea Level Pressure 30.08 in    
Wind  
Wind Speed 8 mph (SSW)    
Max Wind Speed 21 mph    
Max Gust Speed 25 mph    
Visibility 10 miles    
Events      
T = Trace of Precipitation, MM = Missing Value Source: NWS Daily Summary

Daily Weather History Graph

Daily Weather History Graph

Search for Another Location

Airport or City:

Trip Planner

Search our weather history database for the weather conditions in past years. The results will help you decide how hot, cold, wet, or windy it might be!

Date:

Astronomy

Jan. 21, 2011 Rise Set
Actual Time 7:38 AM CST 6:01 PM CST
Civil Twilight 7:12 AM CST 6:27 PM CST
Nautical Twilight 6:42 AM CST 6:57 PM CST
Astronomical Twilight 6:13 AM CST 7:27 PM CST
Moon 8:28 PM CST (1/21) 8:42 AM CST (1/21)
Length of Visible Light 11h 15m
Length of Day
10h 22m
Waning Gibbous, 95% of the Moon is Illuminated
Jan 21
Waning Gibbous
Jan 26
Last Quarter
Feb 2
New
Feb 11
First Quarter
Feb 18
Full

Hourly Weather History & Observations

Time (CST) Temp. Windchill Dew Point Humidity Pressure Visibility Wind Dir Wind Speed Gust Speed Precip Events Conditions
12:52 AM 19.9 °F 11.1 °F 14.0 °F 78% 30.25 in 10.0 mi South 6.9 mph - N/A   Clear
1:52 AM 19.9 °F 11.1 °F 14.0 °F 78% 30.21 in 10.0 mi South 6.9 mph - N/A   Clear
2:52 AM 19.0 °F 9.0 °F 14.0 °F 81% 30.18 in 10.0 mi South 8.1 mph - N/A   Clear
3:52 AM 19.0 °F 12.3 °F 15.1 °F 85% 30.17 in 10.0 mi South 4.6 mph - N/A   Clear
4:52 AM 19.9 °F 11.1 °F 15.1 °F 81% 30.15 in 10.0 mi South 6.9 mph - N/A   Clear
5:52 AM 21.0 °F 11.4 °F 16.0 °F 81% 30.13 in 10.0 mi SSE 8.1 mph - N/A   Clear
6:52 AM 21.9 °F 11.7 °F 17.1 °F 82% 30.09 in 10.0 mi South 9.2 mph - N/A   Clear
7:52 AM 21.9 °F 14.5 °F 17.1 °F 82% 30.08 in 10.0 mi South 5.8 mph - N/A   Clear
8:52 AM 27.0 °F 18.7 °F 19.0 °F 72% 30.06 in 10.0 mi SSE 8.1 mph - N/A   Clear
9:52 AM 32.0 °F 24.2 °F 15.1 °F 50% 30.05 in 10.0 mi South 9.2 mph - N/A   Clear
10:52 AM 39.9 °F 32.5 °F 14.0 °F 35% 30.03 in 10.0 mi South 12.7 mph - N/A   Clear
11:52 AM 45.0 °F 37.1 °F 10.9 °F 25% 30.00 in 10.0 mi SSW 19.6 mph 25.3 mph N/A   Clear
12:52 PM 48.0 °F - 15.1 °F 27% 29.96 in 10.0 mi SSW 12.7 mph 23.0 mph N/A   Clear
1:52 PM 50.0 °F - 19.0 °F 29% 29.95 in 10.0 mi SW 8.1 mph 18.4 mph N/A   Clear
2:52 PM 55.0 °F - 19.9 °F 25% 29.94 in 10.0 mi WNW 11.5 mph 16.1 mph N/A   Clear
3:52 PM 55.0 °F - 19.0 °F 24% 29.95 in 10.0 mi NW 10.4 mph - N/A   Clear
4:52 PM 54.0 °F - 18.0 °F 24% 29.99 in 10.0 mi NNW 15.0 mph - N/A   Clear
5:52 PM 51.1 °F - 19.0 °F 28% 30.03 in 10.0 mi North 10.4 mph - N/A   Clear
6:52 PM 46.9 °F - 18.0 °F 32% 30.06 in 10.0 mi North 8.1 mph - N/A   Clear
7:52 PM 43.0 °F 40.3 °F 18.0 °F 37% 30.09 in 10.0 mi North 4.6 mph - N/A   Clear
8:52 PM 41.0 °F - 19.0 °F 41% 30.10 in 10.0 mi Calm Calm - N/A   Clear
9:52 PM 32.0 °F 27.5 °F 18.0 °F 56% 30.12 in 10.0 mi South 4.6 mph - N/A   Clear
10:52 PM 30.0 °F 24.1 °F 18.0 °F 61% 30.11 in 10.0 mi South 5.8 mph - N/A   Clear
11:52 PM 30.9 °F - 19.0 °F 61% 30.11 in 10.0 mi Calm Calm - N/A   Clear